User: anonymous   Login
Location: Pic du Midi - T1M
(42.9366°N, 0.1426°E)
Time: 21:22:02
(UTC+01:00)
Language:

DUCHIFAT 1 - Orbit

View from above orbital plane
View from above orbital plane
View from above satellite
View from above satellite

Ground track
Ground track

The orbit data is extracted from the following two-line orbital elements,

1 40021U 14033M   21262.32936679  .00000648  00000-0  70611-4 0  9993
2 40021  97.9771 203.5479 0011776 209.6936 150.3614 14.91474148394274
Epoch (UTC): 19 September 2021 07:54:17
Eccentricity: 0.0011776
inclination: 97.9771°
perigee height: 585 km
apogee height: 601 km
right ascension of ascending node: 203.5479°
argument of perigee: 209.6936°
revolutions per day: 14.91474148
mean anomaly at epoch: 150.3614°
orbit number at epoch: 39427

The dashed part of the orbit path shows where the satellite is in the earth's shadow,  

DLR